Location: Ústí nad Labem
(50.6611°N, 14.0531°E)
Time: 01:48:22
(UTC+02:00)

A-11 Canister half - Pass Details

Date: 20 April 2024
Orbit: 1525 x 1683 km, 47.3° (Epoch: 19 May)

Event Time Altitude Azimuth Distance (km) Brightness Sun altitude
Rises 04:33:33 0° 172° (S) 4,844 11.3 -12.7°
Reaches altitude 10° 04:38:56 10° 148° (SSE) 3,894 11.1 -12.0°
Maximum altitude 04:43:07 13° 123° (ESE) 3,642 11.3 -11.5°
Drops below altitude 10° 04:47:20 10° 98° (E) 3,936 11.9 -10.9°
Sets 04:52:48 0° 74° (ENE) 4,940 13.3 -10.2°
